Regional Weather Roundup
Issued by NWS

Current Version | Previous Version | Text Only | Print | Product List | Glossary On
Versions: 1 2 3 4 5 6 7 8 9 10 11 12 13 14 15 16 17 18 19 20 21 22 23 24 25 26 27 28 29 30 31 32 33 34 35 36 37 38 39 40 41 42 43 44 45 46 47 48 49 50
000
ASUS44 KMEG 300100
RWRTN
TENNESSEE HOURLY STATE WEATHER ROUNDUP
NATIONAL WEATHER SERVICE MEMPHIS TN
800 PM CDT SUN MAR 29 2015

TNZ002-004-019-021-049-052-054-088>092-300200-
WEST TENNESSEE

CITY           SKY/WX    TMP DP  RH WIND       PRES   REMARKS
MEMPHIS INTL   MOCLDY    64  50  60 S3        30.04R
NWS MEMPHIS      N/A     65 N/A N/A MISG        N/A
JACKSON        PTCLDY    55  41  59 S5        30.06R
DYERSBURG      CLEAR     57  37  47 W3        30.06S
UNION CITY     CLEAR     55  46  71 SW3       30.05R
PARIS          CLEAR     54  39  58 SW7       30.07R
LEXINGTON      CLEAR     55  39  54 S8        30.06R
SAVANNAH       CLEAR     57  43  58 S5        30.07S
$$

TNZ008-025-027-028-033-062-065-066-300200-
NORTH MIDDLE TENNESSEE

CITY           SKY/WX    TMP DP  RH WIND       PRES   REMARKS
NASHVILLE      PTCLDY    56  36  47 S16       30.05S
CLARKSVILLE    CLEAR     58  41  53 SW7       30.05R
COOKEVILLE     CLEAR     55  34  44 S9        30.07F
CROSSVILLE     PTCLDY    52  22  30 S10G18    30.10F
$$

TNZ061-075-076-078-094-096-097-300200-
SOUTH MIDDLE TENNESSEE

CITY           SKY/WX    TMP DP  RH WIND       PRES   REMARKS
FAYETTEVILLE   CLEAR     52  34  50 S9        30.13S
TULLAHOMA      CLEAR     54  30  40 S13       30.11F
WINCHESTER     PTCLDY    54  30  40 S14       30.13F
COLUMBIA       CLEAR     55  39  54 S10       30.06S
SHELBYVILLE    CLEAR     55  36  47 S15       30.10S
$$

TNZ017-018-042-046-047-300200-
NORTHEAST TENNESSEE

CITY           SKY/WX    TMP DP  RH WIND       PRES   REMARKS
TRI CITIES     PTCLDY    44  20  38 CALM      30.12S
ELIZABETHTON   CLEAR     37  21  52 CALM      30.13R
$$

TNZ012-013-036-069-073-074-300200-
CENTRAL EAST TENNESSEE

CITY           SKY/WX    TMP DP  RH WIND       PRES   REMARKS
KNOXVILLE      PTCLDY    53  25  33 SW15      30.12F
OAK RIDGE      CLOUDY    57  22  25 SW9G17    30.13F
GATLINBURG     CLEAR     50  23  34 CALM      30.11F
$$

TNZ083-085-099-300200-
SOUTHEAST TENNESSEE

CITY           SKY/WX    TMP DP  RH WIND       PRES   REMARKS
CHATTANOOGA    CLOUDY    59  28  30 S9        30.18R
$$

SKY/WX REPORTED AS FAIR MEANS FEW OR NO CLOUDS BELOW
12 THOUSAND FEET.



USA.gov is the U.S. government's official web portal to all federal, state and local government web resources and services.